Powrót do katalogu

TRACERS 1

AktywnyNaukaSSO
NORAD 64870·PAYLOAD·🇺🇸 United States

Wystrzelony Jul 23, 2025 z Vandenberg Space Force Base

Loading…

Następne Przeloty (najbliższe 24 godziny)

TLE

ŚwieżeSource: Space-Track

Epoka: Sep 14, 2026, 09:52 UTC

1 64870U 25154B   26257.41118367  .00000834  00000-0  84079-4 0  9992
2 64870  97.6601 318.8525 0004594 334.0675  26.0314 14.93682866 62319

Śledź TRACERS 1 w czasie rzeczywistym z AllMySat

Download on the App Store